�������l�o���
Date,Time,MP-1(��Sv/h),MP-2(��Sv/h),MP-3(��Sv/h),MP-4(��Sv/h),MP-5(��Sv/h),MP-6(��Sv/h),MP-7(��Sv/h),MP-8(��Sv/h),����,����(m/s),���J
2022/01/19,00:00,0.579,0.873,0.553,1.068,0.747,0.349,0.611,0.581,�k�k��,6.2,��
2022/01/19,00:10,0.579,0.870,0.553,1.068,0.748,0.348,0.611,0.580,�k��,7.3,��
2022/01/19,00:20,0.580,0.873,0.552,1.067,0.747,0.350,0.610,0.579,�k��,7.1,��
2022/01/19,00:30,0.580,0.871,0.552,1.068,0.748,0.350,0.611,0.578,�k��,6.1,��
2022/01/19,00:40,0.578,0.871,0.553,1.068,0.750,0.351,0.610,0.579,�k��,5.7,��
2022/01/19,00:50,0.580,0.869,0.550,1.069,0.747,0.351,0.609,0.578,�k��,4.2,��
2022/01/19,01:00,0.579,0.872,0.552,1.068,0.748,0.351,0.611,0.580,�k��,4.3,��
2022/01/19,01:10,0.580,0.870,0.552,1.069,0.747,0.350,0.610,0.579,�k��,4.3,��
2022/01/19,01:20,0.577,0.873,0.552,1.068,0.747,0.351,0.611,0.580,���k��,4.9,��
2022/01/19,01:30,0.578,0.871,0.553,1.068,0.749,0.349,0.610,0.580,���k��,7.1,��
2022/01/19,01:40,0.579,0.873,0.554,1.067,0.748,0.350,0.611,0.579,���k��,9.0,��
2022/01/19,01:50,0.579,0.873,0.552,1.068,0.748,0.350,0.611,0.578,���k��,8.2,��
2022/01/19,02:00,0.578,0.872,0.552,1.068,0.746,0.349,0.610,0.580,���k��,7.4,��
2022/01/19,02:10,0.577,0.873,0.550,1.069,0.746,0.350,0.610,0.578,���k��,6.8,��
2022/01/19,02:20,0.578,0.872,0.552,1.067,0.747,0.349,0.612,0.579,���k��,7.4,��
2022/01/19,02:30,0.579,0.873,0.551,1.068,0.747,0.350,0.611,0.580,�k��,6.8,��
2022/01/19,02:40,0.579,0.871,0.552,1.067,0.748,0.349,0.612,0.579,�k��,7.2,��
2022/01/19,02:50,0.581,0.873,0.550,1.068,0.748,0.351,0.610,0.578,�k��,8.9,��
2022/01/19,03:00,0.580,0.870,0.552,1.069,0.746,0.350,0.611,0.578,���k��,8.4,��
2022/01/19,03:10,0.577,0.870,0.551,1.067,0.747,0.349,0.609,0.580,�k��,7.0,��
2022/01/19,03:20,0.578,0.870,0.551,1.068,0.747,0.349,0.609,0.578,���k��,7.1,��
2022/01/19,03:30,0.578,0.871,0.550,1.066,0.748,0.348,0.610,0.579,�k��,5.2,��
2022/01/19,03:40,0.579,0.868,0.552,1.068,0.747,0.348,0.611,0.579,�k��,3.6,��
2022/01/19,03:50,0.579,0.870,0.552,1.069,0.748,0.349,0.611,0.579,���k��,4.6,��
2022/01/19,04:00,0.578,0.870,0.553,1.066,0.747,0.349,0.612,0.581,���k��,4.1,��
2022/01/19,04:10,0.580,0.868,0.552,1.070,0.748,0.349,0.609,0.579,���k��,5.1,��
2022/01/19,04:20,0.578,0.870,0.551,1.067,0.746,0.351,0.611,0.579,���k��,6.1,��
2022/01/19,04:30,0.578,0.868,0.553,1.068,0.747,0.350,0.610,0.578,���k��,5.3,��
2022/01/19,04:40,0.578,0.872,0.552,1.068,0.748,0.350,0.611,0.579,��,5.4,��
2022/01/19,04:50,0.577,0.870,0.551,1.068,0.747,0.351,0.610,0.578,���k��,5.3,��
2022/01/19,05:00,0.578,0.869,0.551,1.067,0.748,0.351,0.611,0.580,��,3.9,��
2022/01/19,05:10,0.580,0.869,0.551,1.067,0.747,0.350,0.609,0.579,��,4.9,��
2022/01/19,05:20,0.578,0.869,0.551,1.069,0.745,0.350,0.610,0.578,��,4.6,��
2022/01/19,05:30,0.578,0.871,0.552,1.067,0.747,0.349,0.609,0.578,��,5.4,��
2022/01/19,05:40,0.578,0.873,0.551,1.066,0.747,0.349,0.610,0.579,��,6.4,��
2022/01/19,05:50,0.578,0.870,0.551,1.068,0.747,0.349,0.611,0.578,��,5.3,��
2022/01/19,06:00,0.578,0.870,0.550,1.067,0.746,0.350,0.609,0.579,���k��,4.0,��
2022/01/19,06:10,0.578,0.872,0.552,1.067,0.745,0.349,0.609,0.579,��,5.1,��
2022/01/19,06:20,0.579,0.870,0.551,1.069,0.745,0.350,0.609,0.579,���k��,6.6,��
2022/01/19,06:30,0.577,0.872,0.552,1.068,0.745,0.350,0.611,0.578,��,6.0,��
2022/01/19,06:40,0.577,0.869,0.551,1.066,0.745,0.351,0.610,0.579,���k��,4.6,��
2022/01/19,06:50,0.578,0.870,0.553,1.067,0.744,0.349,0.610,0.579,���k��,6.4,��
2022/01/19,07:00,0.578,0.870,0.551,1.067,0.745,0.350,0.610,0.578,���k��,7.4,��
2022/01/19,07:10,0.577,0.870,0.553,1.067,0.745,0.349,0.609,0.580,���k��,7.3,��
2022/01/19,07:20,0.578,0.869,0.551,1.069,0.745,0.350,0.611,0.580,���k��,8.1,��
2022/01/19,07:30,0.578,0.867,0.552,1.066,0.746,0.350,0.609,0.579,���k��,7.7,��
2022/01/19,07:40,0.580,0.870,0.551,1.069,0.745,0.349,0.611,0.580,���k��,8.7,��
2022/01/19,07:50,0.577,0.869,0.552,1.066,0.745,0.350,0.610,0.579,�k��,8.3,��
2022/01/19,08:00,0.575,0.872,0.552,1.068,0.744,0.349,0.610,0.578,�k��,6.7,��
2022/01/19,08:10,0.578,0.870,0.551,1.066,0.745,0.349,0.611,0.579,�k��,7.0,��
2022/01/19,08:20,0.575,0.872,0.553,1.068,0.746,0.350,0.611,0.579,�k��,5.1,��
2022/01/19,08:30,0.572,0.871,0.552,1.069,0.746,0.350,0.611,0.580,�k��,4.8,��
2022/01/19,08:40,0.574,0.867,0.552,1.070,0.743,0.349,0.611,0.579,�k��,3.2,��
2022/01/19,08:50,0.571,0.870,0.551,1.068,0.743,0.350,0.611,0.579,�k��,4.8,��
2022/01/19,09:00,0.572,0.869,0.553,1.066,0.744,0.349,0.612,0.581,���k��,4.3,��
2022/01/19,09:10,0.572,0.870,0.553,1.068,0.743,0.351,0.611,0.580,�k��,6.1,��
2022/01/19,09:20,0.572,0.870,0.551,1.067,0.744,0.351,0.611,0.579,�k��,7.2,��
2022/01/19,09:30,0.573,0.869,0.552,1.067,0.744,0.350,0.610,0.580,���k��,5.2,��
2022/01/19,09:40,0.572,0.870,0.552,1.067,0.745,0.351,0.612,0.579,���k��,6.8,��
2022/01/19,09:50,0.574,0.869,0.551,1.068,0.746,0.351,0.612,0.580,���k��,7.1,��
2022/01/19,10:00,0.573,0.868,0.552,1.068,0.745,0.351,0.610,0.579,���k��,6.2,��
2022/01/19,10:10,0.572,0.867,0.552,1.067,0.746,0.351,0.610,0.580,���k��,5.2,��
2022/01/19,10:20,0.573,0.869,0.554,1.069,0.746,0.351,0.611,0.578,���k��,5.5,��
2022/01/19,10:30,0.574,0.868,0.555,1.067,0.745,0.351,0.611,0.580,-,-,��
2022/01/19,10:40,0.574,0.868,0.554,1.068,0.746,0.350,0.611,0.580,-,-,��
2022/01/19,10:50,0.576,0.866,0.553,1.068,0.741,0.351,0.610,0.579,-,-,��
2022/01/19,11:00,0.580,0.869,0.554,1.068,0.747,0.351,0.610,0.579,-,-,��
2022/01/19,11:10,0.581,0.871,0.553,1.067,0.748,0.351,0.610,0.578,-,-,��
2022/01/19,11:20,0.580,0.870,0.552,1.066,0.747,0.351,0.610,0.580,-,-,��
2022/01/19,11:30,0.581,0.868,0.554,1.069,0.747,0.351,0.609,0.581,-,-,��
2022/01/19,11:40,0.580,0.868,0.553,1.068,0.747,0.352,0.610,0.580,-,-,��
2022/01/19,11:50,0.581,0.869,0.553,1.068,0.748,0.351,0.610,0.580,-,-,��
2022/01/19,12:00,0.583,0.866,0.555,1.070,0.748,0.351,0.610,0.579,-,-,��
2022/01/19,12:10,0.581,0.866,0.554,1.069,0.748,0.350,0.611,0.580,-,-,��
2022/01/19,12:20,0.582,0.866,0.555,1.070,0.748,0.350,0.611,0.582,-,-,��
2022/01/19,12:30,0.582,0.867,0.555,1.069,0.749,0.351,0.611,0.581,-,-,��
2022/01/19,12:40,0.582,0.868,0.554,1.071,0.749,0.352,0.610,0.581,-,-,��
2022/01/19,12:50,0.580,0.867,0.555,1.071,0.752,0.350,0.611,0.582,-,-,��
2022/01/19,13:00,0.582,0.867,0.557,1.069,0.749,0.351,0.610,0.580,-,-,��
2022/01/19,13:10,0.582,0.869,0.554,1.070,0.750,0.351,0.611,0.580,-,-,��
2022/01/19,13:20,0.581,0.870,0.555,1.071,0.752,0.351,0.611,0.580,-,-,��
2022/01/19,13:30,0.583,0.871,0.556,1.068,0.750,0.351,0.610,0.580,-,-,��
2022/01/19,13:40,0.584,0.872,0.555,1.070,0.752,0.350,0.610,0.581,-,-,��
2022/01/19,13:50,0.582,0.872,0.556,1.070,0.751,0.351,0.612,0.581,-,-,��
2022/01/19,14:00,0.582,0.870,0.556,1.071,0.753,0.353,0.610,0.582,���k��,3.5,��
2022/01/19,14:10,0.583,0.872,0.555,1.070,0.749,0.351,0.611,0.582,��,4.7,��
2022/01/19,14:20,0.582,0.867,0.553,1.070,0.751,0.351,0.613,0.581,��,5.0,��
2022/01/19,14:30,0.583,0.868,0.554,1.071,0.750,0.350,0.612,0.581,���쐼,4.8,��
2022/01/19,14:40,0.582,0.866,0.556,1.072,0.750,0.351,0.614,0.581,��,3.4,��
2022/01/19,14:50,0.582,0.869,0.555,1.072,0.750,0.351,0.612,0.580,���쐼,4.9,��
2022/01/19,15:00,0.583,0.867,0.556,1.072,0.752,0.350,0.614,0.582,��,4.8,��
2022/01/19,15:10,0.584,0.868,0.556,1.072,0.752,0.352,0.611,0.579,��,4.0,��
2022/01/19,15:20,0.582,0.870,0.556,1.073,0.752,0.351,0.611,0.581,��,4.9,��
2022/01/19,15:30,0.582,0.870,0.554,1.073,0.752,0.351,0.613,0.580,��,5.2,��
2022/01/19,15:40,0.583,0.872,0.555,1.071,0.753,0.352,0.613,0.583,��,3.9,��
2022/01/19,15:50,0.582,0.869,0.558,1.073,0.751,0.351,0.613,0.581,��,4.3,��
2022/01/19,16:00,0.581,0.873,0.555,1.072,0.751,0.352,0.612,0.580,��,6.4,��
2022/01/19,16:10,0.582,0.872,0.555,1.071,0.750,0.351,0.613,0.581,��,5.5,��
2022/01/19,16:20,0.583,0.870,0.555,1.072,0.751,0.351,0.613,0.581,��,6.1,��
2022/01/19,16:30,0.582,0.871,0.556,1.072,0.751,0.352,0.612,0.581,���k��,6.2,��
2022/01/19,16:40,0.585,0.872,0.557,1.073,0.751,0.352,0.615,0.580,���k��,5.9,��
2022/01/19,16:50,0.582,0.871,0.556,1.072,0.751,0.352,0.610,0.581,��,6.0,��
2022/01/19,17:00,0.582,0.871,0.555,1.076,0.752,0.350,0.614,0.580,��,5.2,��
2022/01/19,17:10,0.582,0.873,0.556,1.075,0.753,0.351,0.612,0.580,��,4.1,��
2022/01/19,17:20,0.583,0.871,0.554,1.074,0.752,0.352,0.612,0.581,��,5.0,��
2022/01/19,17:30,0.582,0.871,0.556,1.072,0.750,0.351,0.612,0.580,���k��,5.3,��
2022/01/19,17:40,0.582,0.872,0.556,1.073,0.750,0.351,0.612,0.579,���k��,4.9,��
2022/01/19,17:50,0.583,0.873,0.556,1.072,0.752,0.351,0.611,0.581,���k��,3.9,��
2022/01/19,18:00,0.583,0.872,0.556,1.072,0.751,0.352,0.611,0.581,��,3.4,��
2022/01/19,18:10,0.582,0.873,0.554,1.072,0.751,0.351,0.612,0.581,��,4.0,��
2022/01/19,18:20,0.582,0.870,0.555,1.071,0.753,0.351,0.611,0.579,��,5.5,��
2022/01/19,18:30,0.580,0.871,0.555,1.072,0.752,0.352,0.611,0.580,��,6.4,��
2022/01/19,18:40,0.580,0.873,0.555,1.072,0.751,0.352,0.613,0.580,��,6.0,��
2022/01/19,18:50,0.582,0.871,0.555,1.072,0.752,0.352,0.612,0.580,��,5.0,��
2022/01/19,19:00,0.582,0.870,0.554,1.072,0.753,0.352,0.610,0.581,��,5.8,��
2022/01/19,19:10,0.583,0.873,0.555,1.074,0.750,0.350,0.611,0.579,���쐼,6.5,��
2022/01/19,19:20,0.584,0.872,0.558,1.073,0.751,0.352,0.612,0.582,��,6.2,��
2022/01/19,19:30,0.580,0.873,0.556,1.072,0.751,0.351,0.611,0.580,��,5.7,��
2022/01/19,19:40,0.584,0.873,0.555,1.071,0.752,0.351,0.614,0.579,���쐼,5.5,��
2022/01/19,19:50,0.583,0.873,0.554,1.072,0.751,0.351,0.612,0.579,���쐼,6.8,��
2022/01/19,20:00,0.579,0.875,0.555,1.072,0.751,0.352,0.611,0.580,��,7.4,��
2022/01/19,20:10,0.580,0.873,0.556,1.074,0.752,0.350,0.612,0.581,��,7.9,��
2022/01/19,20:20,0.581,0.871,0.554,1.072,0.752,0.352,0.612,0.579,��,7.1,��
2022/01/19,20:30,0.581,0.872,0.553,1.071,0.751,0.350,0.611,0.579,��,7.1,��
2022/01/19,20:40,0.582,0.874,0.555,1.072,0.753,0.350,0.612,0.580,��,7.6,��
2022/01/19,20:50,0.580,0.872,0.555,1.073,0.752,0.351,0.611,0.579,��,8.4,��
2022/01/19,21:00,0.582,0.871,0.554,1.072,0.752,0.352,0.612,0.581,��,7.7,��
2022/01/19,21:10,0.582,0.874,0.554,1.071,0.751,0.351,0.611,0.580,��,7.1,��
2022/01/19,21:20,0.582,0.872,0.555,1.073,0.751,0.351,0.612,0.581,���k��,7.3,��
2022/01/19,21:30,0.579,0.873,0.557,1.073,0.751,0.351,0.613,0.580,��,8.7,��
2022/01/19,21:40,0.583,0.873,0.554,1.071,0.751,0.352,0.613,0.581,��,9.4,��
2022/01/19,21:50,0.582,0.873,0.554,1.072,0.752,0.351,0.613,0.581,���쐼,7.7,��
2022/01/19,22:00,0.583,0.873,0.553,1.072,0.751,0.350,0.612,0.581,���쐼,6.9,��
2022/01/19,22:10,0.582,0.870,0.555,1.073,0.753,0.351,0.611,0.579,���쐼,5.8,��
2022/01/19,22:20,0.580,0.871,0.555,1.071,0.752,0.351,0.612,0.581,��,5.7,��
2022/01/19,22:30,0.581,0.873,0.554,1.074,0.753,0.352,0.611,0.580,��,6.3,��
2022/01/19,22:40,0.582,0.874,0.554,1.073,0.752,0.351,0.613,0.581,��,6.4,��
2022/01/19,22:50,0.580,0.874,0.555,1.072,0.751,0.351,0.612,0.580,��,7.6,��
2022/01/19,23:00,0.583,0.873,0.553,1.071,0.751,0.351,0.611,0.581,��,10.2,��
2022/01/19,23:10,0.581,0.872,0.555,1.072,0.752,0.351,0.613,0.579,��,8.6,��
2022/01/19,23:20,0.581,0.874,0.554,1.073,0.752,0.350,0.612,0.580,��,7.8,��
2022/01/19,23:30,0.582,0.874,0.554,1.071,0.751,0.351,0.612,0.582,��,7.2,��
2022/01/19,23:40,0.581,0.873,0.554,1.072,0.751,0.352,0.613,0.581,��,6.9,��
2022/01/19,23:50,0.580,0.873,0.553,1.071,0.751,0.352,0.612,0.579,��,6.7,��
